Location: Crni Vrh Observatory
(45.9460°N, 14.0712°E)
Time: 17:53:17
(UTC+02:00)

ISS - Visible Passes

Search period start: 23 July 2018 00:00
Search period end: 02 August 2018 00:00
Orbit: 402 x 408 km, 51.6° (Epoch: 23 July)

Date Brightness Start Highest point End Pass type
(mag) Time Alt. Az. Time Alt. Az. Time Alt. Az.
23 Jul -2.1 01:16:51 10° NW 01:19:54 34° NNE 01:20:53 27° NE visible
23 Jul -1.1 02:53:18 10° WNW 02:53:23 10° WNW 02:53:23 10° WNW visible
23 Jul -2.2 22:47:30 10° W 22:50:36 37° NNW 22:53:42 10° NE visible
24 Jul -1.9 00:24:40 10° WNW 00:27:38 30° N 00:29:11 20° NE visible
24 Jul -1.2 02:01:12 10° WNW 02:01:47 14° WNW 02:01:47 14° WNW visible
24 Jul -2.8 21:55:11 10° W 21:58:22 49° NNW 22:01:36 10° ENE visible
24 Jul -1.8 23:32:24 10° WNW 23:35:20 29° N 23:38:13 10° ENE visible
25 Jul -1.8 01:09:05 10° WNW 01:10:49 27° NW 01:10:49 27° NW visible
25 Jul -1.9 22:40:04 10° WNW 22:43:01 30° N 22:45:59 10° ENE visible
26 Jul -2.4 00:16:57 10° NW 00:20:03 36° NNE 00:20:03 36° NNE visible
26 Jul -2.1 21:47:40 10° W 21:50:43 34° NNW 21:53:46 10° NE visible
26 Jul -2.0 23:24:46 10° WNW 23:27:45 31° N 23:29:23 20° ENE visible
27 Jul -1.2 01:01:15 10° WNW 01:02:01 16° WNW 01:02:01 16° WNW visible
27 Jul -1.9 22:32:30 10° WNW 22:35:25 29° N 22:38:21 10° ENE visible
28 Jul -2.4 00:09:06 10° WNW 00:11:24 38° NW 00:11:24 38° NW visible
28 Jul -1.9 21:40:08 10° WNW 21:43:04 29° N 21:46:01 10° ENE visible
28 Jul -2.6 23:16:57 10° NW 23:20:05 40° NNE 23:20:49 34° NE visible
29 Jul -0.7 00:53:27 10° WNW 00:53:27 10° WNW 00:53:27 10° WNW visible
29 Jul -2.2 22:24:44 10° NW 22:27:46 32° N 22:30:16 13° ENE visible
30 Jul -2.0 00:01:12 10° WNW 00:02:53 28° WNW 00:02:53 28° WNW visible
30 Jul -2.0 21:32:28 10° WNW 21:35:23 29° N 21:38:20 10° ENE visible
30 Jul -3.6 23:09:00 10° WNW 23:12:17 63° NNE 23:12:21 63° NNE visible
31 Jul -2.9 22:16:49 10° NW 22:19:59 44° NNE 22:21:50 21° E visible
31 Jul -1.5 23:53:22 10° WNW 23:54:29 19° W 23:54:29 19° W visible
01 Aug -2.4 21:24:35 10° NW 21:27:39 34° NNE 21:30:42 10° E visible
01 Aug -3.6 23:01:02 10° WNW 23:03:59 62° WSW 23:03:59 62° WSW visible
